Other Public Products
Issued by NWS Charleston, SC

Current Version | Previous Version | Graphics & Text | Print | Product List | Glossary On
Versions: 1 2 3 4 5 6 7 8 9 10 11 12 13 14 15 16 17 18 19 20 21 22 23 24 25 26 27 28 29 30 31 32 33 34 35 36 37 38 39 40 41 42 43 44 45 46 47 48 49 50
444
FPUS82 KCHS 240212
OPUCHS

TEST...KCHS/KSAV Gateway Observations...TEST
National Weather Service Charleston SC
900 PM EST THU NOV 23 2017

NOTE: "fair" indicates few or no clouds below 12,000 feet with no
significant weather and/or obstructions to visibility.

SCZ050-WAZ558-NCZ071-TXZ119-213-PAZ071-DCZ001-FLZ074-172-MI076-
NYZ176-178-MAZ016-IL014-TNZ027-NJZ106-GAZ044-MD014-240300-

...Gateway Observations for Charleston International...

CITY           SKY/WX    TMP DP  RH WIND       PRES   REMARKS
Chas Airport   CLOUDY    46  44  93 N6        30.02R
Seattle        PTCLDY    50  45  83 S16       29.90R
Charlotte      PTCLDY    44  32  62 CALM      30.05S
Dallas DFW     PTCLDY    56  32  40 SE7       30.03S
Dallas Love    PTCLDY    56  30  37 SE8       30.05R
Philladelphia  CLEAR     38  20  48 W5        30.06R WCI  34
Wash National  CLEAR     38  26  62 SW3       30.08R
Baltimore      CLEAR     30  23  75 CALM      30.07R
Miami          CLOUDY    76  73  91 S6        29.87R
Detroit        MOCLDY    32  25  75 S5        30.00R WCI  27
Newark         PTCLDY    37  21  52 W8        30.03R WCI  31
Laguardia      PTCLDY    42  22  44 W7        30.02R
J F K          PTCLDY    38  23  55 W9        30.04R WCI  31
Boston Logan   PTCLDY    37  17  44 W7        29.98S WCI  32
Ft. Lauderdale MOCLDY    74  73  97 SW6       29.85R
Chicago O`Hare CLEAR     38  25  59 SW6       29.92S WCI  33
Chicago Midway CLEAR     39  27  62 S5        29.93S WCI  36
Houston Bush   CLEAR     52  39  61 CALM      30.10R
Houston Hobby  CLEAR     51  41  68 CALM      30.09R
Nashville      CLEAR     38  27  64 S6        30.04S WCI  33
Atlanta        PTCLDY    51  40  65 E3        30.01S

$$

GAZ044-118-TXZ119-213-NCZ071-DCZ001-MDZ014-506-PAZ021-071-NJZ106-
NYZ176-178-MAZ106-OHZ011-021-055-MIZ076-KYZ091-ILZ014-INZ047-
MNZ060-ONZ431-240300-

...Gateway Observations for Savannah International...

CITY           SKY/WX    TMP DP  RH WIND       PRES   REMARKS
Savannah Arpt  CLOUDY    48  45  89 N8        30.02R
Atlanta        PTCLDY    51  40  65 E3        30.01S
Charlotte      PTCLDY    44  32  62 CALM      30.05S
Dallas DFW     PTCLDY    56  32  40 SE7       30.03S
Houston Bush   CLEAR     52  39  61 CALM      30.10R
Wash National  CLEAR     38  26  62 SW3       30.08R
Wash Dulles    CLEAR     31  25  78 S5        30.07R WCI  26
Baltimore      CLEAR     30  23  75 CALM      30.07R
Philadelphia   CLEAR     38  20  48 W5        30.06R WCI  34
Newark         PTCLDY    37  21  52 W8        30.03R WCI  31
Laguardia      PTCLDY    42  22  44 W7        30.02R
J F K          PTCLDY    38  23  55 W9        30.04R WCI  31
Boston         PTCLDY    37  17  44 W7        29.98S WCI  32
Pittsburg      MOCLDY    37  22  54 SW3       30.02R
Akron          CLEAR     30  22  72 SW7       30.01S WCI  23
Cleveland      PTCLDY    35  24  64 S7        30.03S WCI  29
Cincinnati     CLEAR     36  25  64 S6        30.02S WCI  31
Columbus       CLEAR     31  24  74 S5        30.02F WCI  26
Detroit        MOCLDY    32  25  75 S5        30.00R WCI  27
Chicago O`Hare CLEAR     38  25  59 SW6       29.92S WCI  33
Minneapolis    PTCLDY    38  28  67 SE7       29.69F WCI  33
Indianapolis   CLEAR     36  21  54 SW6       30.02R WCI  31
Toronto Canada CLOUDY    36  23  60 SW13G22   29.91F WCI  27

$$




USA.gov is the U.S. government's official web portal to all federal, state and local government web resources and services.